Zurück zum Katalog

RSW-01

AktivWissenschaftPO
NORAD 49112·PAYLOAD·🇨🇳 China

Gestartet Aug 24, 2021 von Jiuquan Satellite Launch Center

Loading…

Nächste Überflüge (nächste 24 Stunden)

TLE

AktuellSource: Space-Track

Epoche: Sep 14, 2026, 14:43 UTC

1 49112U 21076A   26257.61379752 -.00000062  00000-0 -13556-3 0  9998
2 49112  86.4078 125.9011 0015130 168.2903 191.8597 13.42862809247882

Verfolge RSW-01 in Echtzeit mit AllMySat

Download on the App Store